User: anonymous
Location: Fort Wayne
(41.1310°N, 85.1290°W)
Time: 09:49:36
(UTC-04:00)
Language:

Tiros 1 despin weight - Orbit

View from above orbital plane
View from above orbital plane
View from above satellite
View from above satellite

Ground track
Ground track

The orbit data is extracted from the following two-line orbital elements,

1 00115U 60002D   14262.06541426  .00002010  00000-0  28325-3 0  4573
2 00115 048.1646 273.8375 0036422 008.6509 046.0190 14.80774642901551
Epoch (UTC): 19 September 2014 01:34:11
Eccentricity: 0.0036422
inclination: 48.1646°
perigee height: 601 km
apogee height: 652 km
right ascension of ascending node: 273.8375°
argument of perigee: 8.6509°
revolutions per day: 14.80774642
mean anomaly at epoch: 46.0190°
orbit number at epoch: 90155

The dashed part of the orbit path shows where the satellite is in the earth's shadow,  

DLR